Theta_e
325 320 313 318 309 309 313 302 294 291 287 287 282 287 290 291 292 292 292 294 294 296 295 299 297 299 298 298 299 299 303 304 302 295 292 301 321 333 331 336 338 340 341 342 340 343 344 345 344 343 345 347 347 346 346 346 345 345 344 343 341 341 341 341 339 338 338 338 339 342 347 346 346 346 346 346 344 343 342 341 341 341 341 341 341 341 340 339 340 342 340 339 337 337 337 337 336
318 315 313 313 311 307 305 297 289 283 284 284 285 285 288 289 292 290 292 291 292 299 299 307 309 310 309 309 308 307 302 315 302 311 319 329 335 333 335 337 339 339 342 343 342 341 342 345 347 347 348 347 347 346 346 346 343 342 342 341 341 341 341 340 340 340 340 339 343 346 345 344 345 345 345 344 344 343 341 341 341 341 341 340 339 339 339 339 341 340 339 339 338 337 336 336 335
315 315 314 312 310 304 300 298 294 281 284 283 281 286 288 290 289 289 291 290 296 304 305 306 301 300 302 303 300 300 297 322 317 319 327 333 329 332 337 339 340 341 343 343 342 340 341 344 347 348 348 348 347 346 346 345 345 344 343 343 342 341 341 342 341 340 339 340 346 346 345 344 345 345 345 344 342 340 340 340 340 340 340 339 338 338 340 341 341 341 341 341 339 338 337 336 337
313 315 310 308 308 299 297 289 287 285 285 280 280 286 288 289 290 290 290 291 300 300 298 299 301 300 304 300 303 310 314 318 322 325 325 328 326 335 338 339 341 342 343 343 342 340 341 344 346 349 348 347 347 346 346 345 344 343 343 342 341 340 340 340 340 338 338 339 344 345 344 343 343 345 345 344 341 340 340 339 340 340 338 338 338 339 340 341 341 340 340 340 339 337 336 337 337
313 315 309 305 303 301 290 288 283 282 284 282 282 285 288 289 291 290 293 293 294 295 296 298 303 306 305 306 306 303 304 318 323 328 328 329 331 338 339 340 341 341 342 342 341 339 340 343 346 347 348 347 347 346 345 345 346 344 343 342 342 341 340 340 339 339 339 341 345 344 344 344 344 344 344 343 340 338 338 338 338 338 338 337 337 339 339 341 341 339 339 339 339 339 339 339 339
309 308 309 306 304 300 292 289 287 286 284 285 285 289 288 291 292 291 295 294 296 294 295 297 301 304 306 309 308 306 310 314 319 322 327 327 334 340 339 339 340 340 342 342 340 338 339 342 345 346 348 348 347 346 346 346 346 344 344 343 342 341 340 340 340 338 338 341 344 344 344 343 342 342 342 341 339 337 337 337 337 336 337 337 338 338 338 339 339 340 340 340 341 341 339 338 338
311 305 302 301 300 297 292 284 284 282 289 287 290 288 291 291 293 292 294 296 296 296 293 301 301 302 302 303 310 312 314 319 320 321 328 327 337 339 339 339 340 340 342 342 340 338 338 342 346 348 348 347 347 347 346 346 346 345 344 343 342 341 340 340 340 340 339 339 345 345 346 345 344 344 343 341 339 337 336 336 336 336 336 337 337 338 338 340 342 342 341 341 341 341 339 339 339
310 308 301 296 293 289 286 283 285 284 290 287 290 291 292 294 291 292 293 294 295 297 299 300 297 297 298 306 304 313 314 317 320 321 325 334 338 339 339 339 338 339 341 342 341 339 343 341 346 347 347 348 347 347 347 346 346 345 344 343 342 341 341 340 339 339 339 337 343 344 344 344 343 343 342 341 339 336 335 335 335 336 336 337 337 338 338 340 341 341 341 341 340 340 339 339 339
304 304 299 295 291 285 282 286 288 286 286 289 290 292 302 293 292 292 292 292 294 293 299 302 297 295 293 303 303 309 314 318 321 323 331 336 337 338 338 338 337 338 340 341 342 341 339 340 344 346 346 347 347 347 347 346 346 345 344 343 342 341 341 340 340 339 338 340 343 344 343 342 341 342 342 340 339 336 335 335 334 337 337 336 337 339 339 339 339 340 340 339 339 339 339 339 339
302 300 294 292 287 289 281 285 287 290 290 290 292 296 293 291 292 292 292 293 294 294 297 293 295 295 298 301 304 312 317 316 323 327 331 335 338 338 337 338 338 338 339 341 342 342 340 343 340 342 343 346 347 347 347 346 346 345 344 343 342 341 341 340 340 339 338 339 341 342 342 341 340 341 342 340 338 335 335 334 334 334 335 336 337 337 338 338 339 340 340 339 338 338 337 338 337
299 295 295 292 283 283 285 285 283 285 291 289 290 291 292 291 291 290 291 293 292 294 295 295 299 299 302 302 303 309 313 317 325 327 331 335 337 336 335 337 339 339 338 340 342 342 341 340 342 339 342 342 344 346 346 346 346 346 345 343 342 341 341 340 340 339 338 340 341 340 340 340 341 341 341 340 338 336 334 334 334 334 335 337 338 337 337 337 339 339 339 339 338 337 336 336 336
296 294 291 283 284 285 282 284 286 285 287 288 296 293 292 293 291 293 292 294 293 293 295 296 299 302 300 298 302 308 312 319 323 326 329 333 335 333 334 337 339 340 340 341 341 342 341 340 341 341 337 337 341 343 344 344 345 345 345 344 342 341 341 341 340 339 338 337 340 337 337 340 341 341 340 339 338 337 336 334 334 334 335 337 337 336 336 336 337 339 338 337 336 336 336 336 336
295 292 288 286 287 287 285 285 288 292 284 288 293 295 292 292 293 290 290 292 292 293 295 295 300 300 296 299 301 306 316 320 321 323 327 332 332 331 332 337 339 339 340 341 341 341 341 340 340 339 337 334 335 336 339 340 342 344 345 344 342 342 341 341 340 339 338 337 337 337 336 339 340 340 339 338 337 336 336 334 334 333 335 336 335 335 335 336 338 337 337 336 335 335 336 336 335
297 293 290 292 284 283 284 285 285 289 287 290 289 291 293 293 292 290 292 293 293 293 294 294 303 299 299 298 299 302 312 317 320 323 325 328 328 331 334 337 338 338 339 340 340 341 341 340 339 339 336 335 335 334 333 337 340 343 343 342 342 341 341 341 340 340 339 339 339 337 338 339 340 339 338 337 337 335 335 335 335 334 334 335 335 335 335 336 336 336 336 335 335 335 335 335 334
303 293 287 284 284 286 284 287 288 285 288 288 294 291 292 294 290 290 293 291 293 292 296 300 302 298 293 296 292 305 314 320 321 322 324 326 327 331 334 336 337 337 338 339 340 341 341 339 339 338 335 335 335 335 334 335 334 338 340 339 339 340 340 340 340 338 338 338 336 334 333 332 332 333 335 335 335 334 332 331 334 335 335 335 334 334 335 336 336 335 335 335 335 334 334 333 332
298 293 288 290 286 285 288 285 283 285 288 288 292 290 293 293 289 294 294 294 295 295 296 299 299 298 296 296 304 301 315 319 321 323 324 326 328 331 334 335 336 336 337 338 339 340 340 339 339 338 337 337 336 336 335 333 332 332 335 337 336 337 337 338 336 334 331 330 329 328 326 326 325 325 326 327 330 333 331 326 331 334 335 334 333 334 335 335 335 335 335 334 333 333 332 331 329
297 293 292 283 288 285 288 286 287 288 286 288 289 290 294 292 292 293 292 294 296 295 298 300 299 306 299 299 303 311 313 319 322 323 324 326 329 330 331 332 333 334 335 337 338 338 340 339 339 337 336 337 337 337 338 337 334 330 331 331 332 334 334 334 333 326 323 322 322 321 322 322 321 322 322 322 322 323 323 324 329 335 334 333 333 333 334 334 334 334 334 333 331 329 326 325 325
298 291 286 287 283 285 287 288 289 288 290 290 289 290 292 291 293 296 295 294 291 293 299 294 303 306 310 313 309 309 316 322 322 323 323 325 328 328 329 330 331 331 333 334 337 338 338 339 338 337 336 337 337 337 338 338 336 333 333 332 331 330 328 326 326 325 325 321 320 321 321 321 320 319 320 324 320 322 322 323 327 333 333 332 332 333 333 333 332 332 332 330 327 323 318 313 314
290 286 287 289 285 289 291 288 289 291 291 290 291 289 292 292 292 294 294 292 293 295 296 294 301 302 306 308 311 315 319 320 321 323 322 324 325 327 328 329 330 331 331 332 334 337 337 338 338 337 336 336 336 336 337 337 337 336 333 332 331 326 327 326 326 324 321 321 320 320 320 319 318 317 317 319 319 320 322 322 326 330 331 330 331 331 332 332 331 330 328 325 322 317 310 309 308
292 293 290 284 290 288 288 288 290 290 291 292 291 290 290 292 293 294 294 290 291 293 292 294 296 298 303 310 311 316 319 319 321 322 322 322 323 328 328 329 329 330 332 333 334 336 337 337 337 338 337 337 336 336 336 337 337 336 335 335 334 328 325 326 324 323 322 321 320 320 319 318 318 318 322 322 321 318 320 321 324 325 327 326 327 327 328 328 327 325 322 319 314 310 308 307 307
294 290 287 291 288 292 292 288 288 287 290 291 290 288 291 291 291 293 290 292 291 291 290 297 296 296 306 311 312 316 318 318 318 320 321 321 320 324 329 331 331 332 333 334 334 334 336 337 337 337 338 337 337 336 335 335 337 337 336 336 335 330 326 324 323 322 321 320 319 319 318 317 317 317 317 317 317 317 316 317 319 319 317 314 316 312 311 312 310 308 308 308 306 307 307 306 306
293 293 289 290 288 292 292 288 289 289 288 290 287 292 292 291 292 289 292 291 289 294 297 294 297 297 310 312 314 315 317 318 318 318 320 321 321 322 326 329 332 333 332 332 332 334 335 337 337 337 337 337 337 337 336 335 336 336 336 336 335 332 327 324 322 322 321 320 319 319 318 317 317 317 316 316 316 317 316 315 315 314 313 310 311 308 306 306 306 306 306 305 304 304 304 304 304
294 290 289 287 288 293 290 290 289 287 289 289 289 291 291 291 292 287 290 293 291 291 292 293 294 302 311 314 315 316 316 317 318 319 320 320 321 322 325 329 331 331 332 333 334 334 335 336 336 337 337 337 337 338 337 335 336 337 337 336 335 332 329 326 322 320 321 320 319 318 318 317 316 316 316 315 316 316 316 314 314 313 312 308 306 306 304 304 304 304 304 303 303 304 303 303 303
289 292 289 292 288 293 288 290 288 287 290 290 290 290 292 290 293 289 289 293 292 291 289 288 291 309 313 314 315 317 318 318 319 320 321 322 322 323 324 327 331 332 331 333 334 334 334 335 336 337 337 337 337 337 337 335 336 337 337 334 335 332 330 327 325 322 321 320 319 319 318 318 317 316 316 316 315 313 315 315 313 312 310 307 305 305 303 302 302 302 303 302 304 303 303 302 302
292 292 290 291 289 290 288 286 286 287 288 289 289 291 291 288 290 289 289 293 293 291 293 297 305 309 309 313 314 315 316 317 318 318 316 318 317 318 318 323 327 330 330 332 334 334 335 335 336 336 336 336 337 338 336 336 336 336 336 335 335 330 332 329 327 324 321 319 319 318 318 317 316 316 316 316 314 315 314 313 313 311 309 307 305 303 303 302 302 302 302 303 303 303 302 301 301
289 292 289 289 291 288 289 289 286 287 290 288 291 289 289 288 289 291 292 291 290 293 299 303 306 308 309 312 314 314 315 316 317 316 319 317 314 316 318 321 326 328 331 332 333 334 336 336 336 336 336 336 337 337 337 335 335 335 336 335 336 331 333 332 328 325 324 321 319 318 318 318 317 317 315 314 315 314 313 311 312 311 308 305 304 303 301 302 301 301 302 302 302 301 301 300 301
288 289 289 290 290 290 290 291 289 288 290 288 291 289 290 290 290 288 291 288 289 295 298 300 306 307 309 309 312 313 314 315 316 317 312 313 314 317 319 317 321 327 330 330 332 333 334 335 336 336 337 335 337 336 337 336 335 334 335 336 336 333 334 333 329 326 325 323 322 319 318 317 317 316 315 314 314 314 313 312 311 310 307 304 304 302 300 301 301 301 302 301 301 300 298 298 299
290 291 289 290 286 290 288 290 290 289 293 287 291 290 290 289 290 289 289 289 290 294 296 300 300 304 307 308 310 311 312 313 312 311 316 315 317 318 319 320 320 322 326 329 331 333 333 334 335 336 337 336 335 336 336 336 335 335 335 335 335 335 335 334 331 328 324 324 323 322 321 320 319 319 317 316 315 313 313 313 311 310 307 304 303 301 300 300 300 300 300 300 299 298 297 297 297
290 292 291 288 285 293 289 292 290 289 293 291 289 291 289 290 289 289 287 287 292 292 293 297 298 299 301 304 306 308 312 310 308 312 315 317 319 320 319 321 322 321 324 326 330 331 332 333 334 336 337 336 335 336 336 336 336 336 335 335 335 335 335 334 332 330 328 325 324 323 322 321 320 320 319 317 315 315 315 314 312 310 308 305 303 301 300 298 298 298 298 298 297 298 298 298 299
291 289 285 287 283 286 290 288 290 291 292 289 290 284 282 284 290 291 290 285 290 292 291 291 294 294 295 298 305 307 307 307 309 313 315 316 316 317 318 320 320 321 322 321 324 328 331 333 333 335 336 337 335 337 337 336 336 336 335 336 334 334 335 335 333 332 329 326 325 323 322 321 320 321 319 318 316 315 314 314 314 311 308 305 303 301 299 298 298 298 296 297 298 298 297 296 296
290 289 285 283 285 283 288 289 288 291 291 289 289 283 281 282 287 284 285 286 290 290 289 289 290 290 290 292 297 304 307 309 311 313 313 314 314 314 315 316 317 318 317 317 320 324 326 330 332 333 333 335 334 336 335 336 336 335 335 336 335 334 333 334 335 333 331 328 326 324 323 321 320 320 320 319 317 316 314 314 314 314 309 307 305 303 301 299 300 299 298 297 296 295 295 295 296
282 286 283 279 282 281 283 288 288 290 292 287 288 282 285 286 285 286 288 286 287 290 289 288 287 289 290 289 291 295 301 305 307 309 311 312 313 314 314 315 315 315 317 318 318 319 322 325 328 331 332 333 335 335 336 336 336 335 333 330 335 335 334 333 334 334 333 330 327 326 324 322 320 320 320 319 317 316 314 313 314 314 310 309 306 303 301 300 299 299 299 299 297 294 295 294 295
281 284 281 283 281 279 285 290 287 289 290 289 288 283 281 288 288 284 285 287 287 288 287 286 287 287 288 290 291 292 293 294 297 302 307 310 311 313 315 315 315 315 316 316 317 316 319 322 323 328 330 331 333 333 334 335 335 335 335 333 333 333 334 334 334 333 333 332 329 327 325 322 320 320 320 319 318 316 314 313 313 312 311 309 306 303 301 301 300 299 298 299 301 296 296 295 294
286 281 281 279 282 281 283 285 288 287 289 289 287 287 283 286 286 285 286 289 289 289 288 288 288 288 289 289 290 292 292 293 295 296 298 303 308 310 313 313 315 314 315 315 316 317 318 320 322 324 328 330 332 332 332 333 333 333 334 334 331 333 333 334 334 334 333 332 331 328 327 324 321 320 320 319 318 316 315 314 312 312 311 309 307 304 302 301 300 300 298 298 300 299 297 296 295
281 284 282 283 280 280 281 284 288 288 287 288 286 287 289 291 292 292 290 288 289 290 291 290 290 290 290 290 290 291 292 293 296 297 297 297 300 304 308 310 312 312 314 315 315 316 316 317 318 320 322 326 329 330 330 330 330 330 331 331 331 332 333 333 333 333 334 334 332 330 329 326 322 322 321 319 318 317 315 313 311 310 310 310 308 305 303 300 300 300 299 297 297 298 299 298 296
285 286 283 279 282 282 282 282 283 288 287 288 285 287 288 289 290 292 291 287 288 289 287 288 289 290 291 291 291 291 292 293 296 296 295 295 296 298 301 304 308 310 312 313 313 314 315 315 316 318 320 323 325 327 327 326 327 326 326 324 326 328 331 329 331 332 332 333 333 332 330 329 326 323 323 321 319 317 316 314 312 310 309 309 308 306 303 300 299 299 298 296 296 296 297 296 295
284 282 279 281 281 281 282 283 287 285 288 286 285 285 285 288 290 292 293 289 288 288 289 290 290 290 291 291 292 293 293 295 295 294 295 295 295 295 296 298 302 305 308 310 311 313 315 316 316 317 319 320 322 324 324 325 324 324 325 326 326 327 327 329 329 330 331 332 332 333 331 330 329 326 323 322 320 316 317 315 314 311 309 308 308 307 306 302 301 300 299 297 296 295 294 294 294
285 282 282 281 282 284 285 288 286 286 288 284 281 284 286 287 289 290 291 287 289 291 291 290 291 290 290 290 291 292 293 292 292 294 293 292 292 293 293 294 297 300 304 308 310 313 314 315 316 317 316 318 320 323 324 325 326 326 325 326 326 327 325 325 327 328 329 328 330 331 332 332 330 328 324 325 321 320 317 316 315 312 309 308 308 308 307 302 301 300 298 296 296 296 293 294 294
281 283 280 282 282 281 284 285 285 286 288 283 281 285 289 290 291 291 290 291 290 289 289 290 290 291 290 290 290 291 291 292 291 292 290 291 291 291 292 294 296 300 301 305 309 309 310 313 315 316 316 318 319 321 322 322 324 323 324 321 325 322 320 324 326 324 325 327 327 329 330 331 332 331 327 325 324 322 320 318 317 314 310 308 307 308 307 303 301 300 298 297 293 295 294 294 294
282 281 283 282 282 285 284 284 285 285 285 286 284 285 289 289 286 287 288 289 289 288 288 289 289 290 291 292 291 291 291 292 292 291 291 289 289 290 290 293 295 296 298 300 305 309 311 311 314 315 316 317 318 319 317 319 315 315 313 311 315 319 317 315 317 317 322 324 325 327 328 329 330 329 329 327 326 325 323 320 319 316 312 309 308 307 307 305 302 300 298 298 296 293 292 292 294
282 281 280 281 284 282 282 285 284 281 285 283 283 285 285 280 281 281 285 282 282 285 283 285 288 289 290 290 290 291 291 291 291 292 292 290 290 291 292 293 293 296 298 301 304 307 311 311 313 314 314 315 315 314 316 312 311 309 307 308 309 310 310 312 315 318 320 320 322 323 326 326 327 328 330 329 325 326 325 323 320 318 315 311 309 308 307 306 303 301 299 299 297 296 293 293 293
285 282 283 283 282 284 284 283 284 278 282 281 282 280 276 278 280 281 282 282 286 284 284 287 287 284 285 287 290 290 290 289 291 293 293 291 290 290 289 289 291 294 296 298 299 304 306 308 309 310 310 310 313 312 313 313 314 315 312 314 313 310 313 310 314 317 318 318 321 322 322 323 324 326 327 329 328 326 326 324 323 320 318 315 312 310 309 308 304 302 300 299 298 299 298 294 292
283 286 284 282 283 284 282 282 281 279 279 282 280 280 274 278 281 283 281 281 285 286 283 286 285 286 284 286 288 287 288 289 288 289 289 289 290 289 291 291 291 293 295 295 297 301 303 304 306 308 310 308 308 308 310 311 311 312 314 316 317 316 315 314 309 310 317 318 319 319 321 320 323 324 324 326 327 325 326 326 325 323 321 319 314 313 311 309 307 304 302 300 300 299 299 295 294
285 283 281 283 285 284 282 281 282 279 279 282 278 275 278 278 283 281 280 282 285 285 286 286 286 285 287 287 287 286 286 286 287 288 289 288 289 290 292 292 292 294 293 293 295 297 301 303 303 305 304 305 304 306 308 311 313 312 311 312 313 314 313 314 309 308 304 306 314 318 318 318 319 321 323 322 322 323 323 325 325 324 322 320 315 314 313 312 310 307 304 302 301 300 300 299 297
283 283 282 282 283 281 279 280 279 279 281 280 276 283 279 276 280 281 280 285 283 285 285 284 286 288 288 288 290 288 285 284 285 287 288 289 291 292 291 292 292 292 292 294 295 296 297 299 300 301 302 302 302 305 307 308 311 312 312 311 311 310 310 308 300 301 305 302 307 310 315 317 316 317 319 320 319 320 318 319 321 321 322 322 317 318 316 315 313 309 305 302 301 301 301 301 301
285 282 283 282 281 281 280 277 280 279 278 271 278 280 275 277 278 279 279 283 283 284 283 285 286 287 288 290 291 291 290 289 287 287 288 289 291 291 290 290 291 291 291 293 294 295 296 296 299 300 301 300 301 303 305 306 307 307 309 308 309 310 306 302 300 301 301 299 305 306 310 313 314 314 314 315 316 316 316 315 316 317 318 317 313 316 315 314 312 309 307 304 303 301 301 300 301
286 283 286 283 280 279 277 277 275 275 271 274 276 276 278 276 279 281 283 283 282 280 283 286 286 287 288 288 289 289 290 290 288 288 287 288 288 289 289 291 290 290 290 291 292 293 294 296 296 299 299 297 298 302 303 305 305 305 308 308 308 309 306 304 302 301 298 296 302 303 306 309 311 313 313 313 313 314 314 313 314 315 314 312 312 315 315 315 313 311 309 306 304 302 301 301 300
285 283 280 284 281 277 277 271 274 272 267 271 275 277 277 275 275 281 282 281 280 285 289 289 288 289 289 289 289 289 289 289 289 289 290 289 291 290 289 291 290 290 291 291 291 292 293 294 294 298 297 297 296 298 299 302 302 304 304 306 307 307 306 305 305 306 303 303 302 302 300 301 305 307 308 310 311 311 312 313 312 313 312 313 313 313 313 314 313 311 309 307 305 304 303 301 301
284 282 284 277 271 269 274 267 273 271 267 278 276 277 278 278 280 284 285 285 284 282 285 287 290 289 289 289 289 288 288 288 289 290 290 292 290 290 291 291 290 290 290 290 291 291 292 293 294 297 297 295 295 296 298 299 299 302 303 304 304 304 304 304 305 305 304 303 303 301 299 300 298 300 304 307 309 310 310 311 311 311 311 312 312 313 312 312 312 310 309 307 305 303 303 302 301
282 285 279 274 270 267 265 259 261 266 271 275 278 277 277 278 280 286 289 289 285 285 284 284 285 286 287 288 288 287 288 287 288 287 288 290 290 291 290 290 289 289 288 289 289 290 291 294 293 295 296 293 293 295 297 297 299 301 300 302 303 303 303 303 304 305 304 303 302 302 302 302 301 301 302 303 307 309 310 311 312 313 313 312 311 311 312 312 311 311 309 308 306 305 304 303 302
285 282 284 280 269 266 265 263 271 271 271 273 274 274 273 276 282 286 284 285 284 283 284 283 282 283 285 285 284 284 285 286 285 287 291 291 292 290 292 291 290 289 290 290 289 290 291 294 293 294 294 293 293 295 295 297 299 298 298 299 301 300 302 302 303 303 302 301 300 301 301 301 301 301 301 302 300 303 305 306 308 310 311 311 311 311 310 310 310 310 309 308 307 307 305 304 303
282 279 281 278 277 274 270 266 265 263 269 270 272 275 276 281 284 284 284 283 285 284 284 284 286 284 282 284 285 287 288 289 289 290 292 292 291 291 291 291 290 290 289 288 290 290 291 292 292 292 293 294 292 292 294 297 298 297 296 298 299 299 299 299 299 297 300 300 300 300 301 300 301 301 299 298 298 299 301 302 303 305 307 308 308 308 309 309 309 309 309 309 308 307 306 304 304
284 282 278 279 279 279 270 268 270 270 267 271 269 276 280 280 284 285 280 283 285 281 284 285 284 281 282 287 286 287 289 290 291 293 292 292 291 291 292 292 292 291 292 293 292 290 292 291 291 293 293 291 292 292 294 294 295 294 296 296 297 297 298 299 300 300 299 298 298 299 299 300 298 297 298 297 298 297 298 299 300 301 303 304 306 306 307 307 307 306 306 307 307 307 305 305 304
283 279 280 281 280 279 276 272 264 261 268 271 271 275 276 275 279 281 281 286 285 283 285 281 282 284 287 289 289 290 291 291 291 291 291 291 291 292 293 293 292 293 292 292 293 291 290 291 292 293 293 293 293 292 292 293 294 295 295 296 296 297 298 299 299 299 298 297 297 297 295 296 297 298 297 296 296 296 296 296 298 298 298 299 301 303 304 305 305 305 306 306 307 305 304 303 303
283 280 284 284 278 276 276 271 268 266 265 266 269 272 273 276 280 279 282 284 285 284 284 284 286 286 289 291 293 292 291 291 293 293 293 294 293 293 292 292 293 292 291 290 290 290 290 290 291 291 294 294 293 293 292 292 293 295 296 296 296 297 297 297 297 297 295 297 297 297 297 298 295 293 295 295 294 294 294 294 295 296 295 296 297 298 299 302 303 303 303 303 303 303 303 302 302
285 285 283 284 279 275 273 275 269 272 266 263 268 267 276 277 278 280 285 282 285 283 283 284 285 287 289 291 292 292 292 292 292 293 293 292 292 292 290 291 292 292 292 291 292 293 294 293 292 293 293 292 291 291 291 292 292 293 295 294 294 295 296 296 296 296 296 297 298 297 297 294 296 295 295 294 294 294 293 293 292 294 294 294 295 295 296 299 301 302 302 300 298 299 300 299 298
281 281 281 284 279 281 279 276 273 274 263 262 265 269 272 277 279 281 285 283 281 282 285 284 287 288 289 290 292 292 291 292 292 292 290 291 290 290 290 288 289 288 288 290 291 291 292 292 293 293 293 294 294 293 292 293 291 293 292 293 294 293 294 294 294 294 295 296 296 295 295 295 291 294 292 293 293 294 294 293 293 293 293 293 293 293 293 296 298 298 297 297 296 296 297 297 296
286 286 283 286 280 277 275 277 276 266 271 268 262 273 270 279 280 284 282 282 282 282 285 288 286 287 287 290 291 289 291 292 289 288 287 288 288 289 288 288 287 288 291 290 290 290 292 292 292 291 291 292 293 294 293 293 291 291 291 293 292 291 292 291 292 293 293 294 294 293 293 289 291 293 289 293 293 293 292 292 292 293 292 292 292 294 292 292 294 295 295 296 296 295 295 295 295
Wind_Speed
6 5 2 0 4 3 1 6 2 3 2 0 0 1 1 1 1 1 1 1 1 1 1 1 3 5 2 3 7 3 1 7 6 7 3 1 1 3 3 5 7 8 8 5 4 4 5 10 15 15 14 13 13 13 13 14 14 13 13 13 13 13 12 12 13 13 13 12 11 13 15 15 15 15 17 18 17 15 14 14 14 15 15 15 16 16 16 15 16 17 18 17 17 17 17 17 18
3 2 3 2 3 2 1 1 3 3 6 2 3 1 1 1 1 3 5 4 2 1 2 4 6 8 8 8 7 3 1 2 4 1 1 1 5 3 3 7 8 10 7 5 4 4 4 7 11 11 13 13 14 13 13 14 13 13 13 13 13 12 12 12 12 12 11 11 14 14 14 13 14 15 16 16 16 15 14 14 13 15 15 16 15 15 15 16 17 18 18 17 17 17 17 17 17
2 3 2 4 3 4 1 3 2 1 4 1 3 5 1 1 3 3 6 3 1 4 4 4 4 3 2 1 1 1 2 1 3 2 1 4 10 5 5 7 7 8 8 4 4 4 4 6 9 11 13 13 14 13 12 13 13 13 13 13 13 12 11 11 10 11 11 11 14 14 14 14 14 14 16 17 16 15 14 13 13 15 16 15 15 15 16 16 16 16 16 17 17 16 16 16 17
1 4 4 3 1 3 0 4 4 7 4 5 2 2 3 4 5 5 4 3 4 1 1 0 2 2 0 2 0 1 1 0 2 3 4 7 3 6 7 8 7 7 5 4 4 3 4 6 8 10 11 13 13 13 12 12 12 12 12 13 13 12 11 10 10 11 11 11 14 13 13 13 13 14 16 17 16 15 14 13 14 14 15 15 15 16 15 16 16 16 16 17 17 17 16 15 15
3 2 4 4 3 0 2 1 4 2 2 5 2 3 3 4 4 4 2 2 4 1 0 1 3 3 0 3 1 0 1 1 1 2 1 1 1 8 8 8 7 8 6 5 4 4 4 7 8 9 12 13 13 12 12 12 12 12 12 12 13 13 12 10 10 10 10 12 14 14 13 14 14 15 16 17 16 15 14 13 15 15 14 15 16 15 16 16 16 16 15 16 16 16 15 15 16
5 4 4 2 1 2 5 1 1 3 5 5 1 2 4 5 6 5 1 1 3 2 1 0 2 4 1 1 2 0 1 1 2 2 3 3 6 8 10 7 7 6 6 5 4 3 4 7 8 9 12 13 13 13 12 12 12 11 11 12 12 12 12 11 10 11 10 12 14 15 12 13 13 14 14 15 15 16 14 13 14 14 14 14 15 14 15 14 15 15 15 15 16 16 16 16 16
0 5 4 4 2 3 3 2 3 2 0 4 0 1 5 4 4 5 1 1 1 1 1 0 1 4 4 1 1 2 2 0 2 1 5 2 7 8 9 8 7 8 6 5 4 3 4 7 9 11 10 11 13 12 12 12 11 11 11 11 12 12 12 11 10 9 9 12 15 14 14 14 14 15 16 16 14 15 14 13 14 14 14 14 14 14 14 14 15 15 15 16 16 16 17 17 17
2 1 1 1 1 4 2 1 1 3 1 4 0 2 3 7 5 4 5 2 2 1 1 0 1 3 0 2 2 1 2 2 2 1 2 7 7 8 8 8 8 9 8 5 4 3 6 7 9 9 9 12 12 12 13 12 11 11 11 11 11 11 11 11 11 10 9 9 13 13 13 13 14 14 14 15 15 15 14 13 14 14 15 15 14 13 13 14 15 16 16 16 16 16 16 16 17
5 6 0 3 1 3 2 1 1 2 4 1 4 5 3 4 5 5 4 1 0 0 1 1 1 1 2 1 1 1 3 2 3 2 5 8 9 9 6 8 8 8 9 6 5 4 3 6 8 9 9 10 12 12 12 12 11 11 11 11 10 10 10 10 10 9 7 10 12 13 12 13 13 13 14 15 15 14 14 13 13 15 15 14 13 12 13 13 14 15 16 16 16 16 16 17 17
2 2 1 2 3 0 2 1 2 1 1 1 1 0 3 2 3 1 4 2 1 2 0 1 1 1 1 1 1 1 1 4 1 3 5 8 8 7 7 7 7 9 9 7 5 4 3 6 8 9 8 10 10 11 12 12 12 12 12 11 11 11 10 10 10 9 7 10 11 12 12 11 12 13 13 14 15 14 13 12 13 13 14 13 13 12 13 13 14 15 16 16 16 16 16 15 16
0 5 3 2 4 1 1 1 3 3 2 4 3 3 2 3 4 1 0 2 1 2 1 2 1 2 1 1 2 2 4 1 3 6 5 7 7 7 6 5 6 8 9 8 6 4 4 4 9 9 8 9 9 10 10 11 12 12 12 11 11 11 11 10 10 9 7 11 10 11 11 11 11 14 13 14 15 14 12 11 12 13 13 13 12 11 12 14 15 15 16 16 16 15 14 15 16
1 1 2 2 1 5 3 2 1 5 5 2 1 0 2 5 1 1 1 4 1 1 3 5 1 6 2 2 1 1 5 0 4 4 5 5 6 4 4 4 5 5 7 8 5 5 4 3 5 7 8 8 9 9 9 10 10 10 10 11 11 11 11 11 10 9 8 8 11 10 10 12 12 13 14 14 14 13 12 12 12 13 14 12 12 11 12 12 14 15 15 15 14 14 14 15 15
2 1 5 4 0 1 0 1 0 2 3 3 2 0 3 4 3 4 3 2 1 4 1 6 3 1 1 2 3 4 0 4 3 3 4 6 5 4 3 4 5 5 6 6 6 5 4 4 4 4 5 8 7 8 8 8 9 9 9 10 9 10 11 11 10 10 9 7 8 10 8 9 12 12 14 13 13 12 12 11 11 12 12 11 11 11 12 13 14 14 14 14 14 14 15 14 14
2 5 5 1 1 2 3 1 1 2 2 2 2 1 4 3 3 4 6 4 2 4 1 1 3 3 1 1 3 2 4 3 4 3 3 4 4 4 4 4 6 5 5 6 7 6 4 4 4 4 4 4 3 6 7 8 8 8 8 8 8 8 9 10 10 9 9 7 7 7 7 8 11 11 11 10 10 12 10 7 10 13 11 11 10 10 12 12 13 13 14 14 14 15 14 14 14
0 2 6 5 1 1 2 3 5 4 3 2 2 6 2 3 2 4 6 6 5 2 1 0 2 2 3 5 3 6 4 4 5 4 4 4 3 4 4 4 5 4 4 5 5 6 5 4 5 4 3 3 4 4 3 5 8 8 8 7 7 8 8 8 8 8 7 8 8 8 9 11 11 11 10 10 11 11 8 6 8 12 13 12 11 11 13 13 13 14 14 15 14 14 14 13 13
4 6 3 2 1 2 2 1 0 4 4 4 1 1 5 1 1 5 4 1 1 1 0 2 0 1 1 4 0 3 3 6 4 5 6 5 4 3 4 4 7 4 6 5 6 5 4 5 4 5 4 4 4 4 4 4 6 8 8 7 8 8 8 8 8 8 9 9 9 9 10 9 9 8 11 8 10 10 8 4 6 12 13 12 11 12 13 13 14 14 15 14 14 14 14 13 13
2 3 1 3 1 2 2 2 5 2 3 3 1 3 6 2 0 1 0 1 5 1 2 0 2 0 3 2 3 1 2 7 6 6 6 5 5 4 4 4 4 4 4 6 6 6 5 5 5 4 4 4 4 4 4 4 5 7 6 7 8 8 8 8 8 9 9 9 8 9 8 6 5 5 6 5 7 6 8 6 5 12 13 12 12 12 13 13 14 14 14 14 14 14 12 12 12
1 2 5 1 2 2 5 6 8 1 3 4 4 6 5 2 0 1 1 4 2 1 0 3 1 3 2 3 3 3 4 10 8 9 7 7 6 6 6 5 6 6 6 5 6 6 6 6 6 5 5 6 5 4 4 3 4 5 5 4 4 5 6 7 7 5 6 5 8 7 5 5 5 4 4 5 5 5 6 7 5 10 13 11 11 13 13 13 13 14 14 14 14 13 11 7 7
3 2 3 5 4 3 6 4 5 2 3 5 3 3 2 5 6 2 2 1 1 1 2 1 2 3 1 2 1 6 8 9 9 9 10 10 8 9 7 6 7 6 7 6 6 7 6 6 6 6 5 5 5 5 4 4 5 4 4 5 4 5 5 5 5 5 4 4 4 5 5 5 4 3 4 4 4 6 6 7 6 8 10 10 10 12 12 13 14 14 14 13 12 11 7 5 5
1 4 2 2 8 3 4 4 4 3 2 6 5 3 1 1 1 1 2 3 0 6 4 2 3 5 4 2 3 7 8 8 8 10 11 9 8 9 8 8 8 8 9 8 7 6 6 6 7 8 7 6 6 5 4 5 5 4 5 5 5 4 4 4 4 4 5 4 5 5 5 5 5 5 5 7 6 4 5 7 8 9 9 9 10 7 10 11 13 13 13 11 7 5 5 5 5
1 3 3 2 3 1 2 6 3 4 3 3 4 2 1 1 2 2 3 4 3 6 6 8 10 9 6 4 5 7 9 9 8 8 9 9 7 6 8 10 10 8 6 5 5 7 7 7 6 7 7 6 6 6 5 5 5 4 4 5 5 5 4 4 4 4 4 4 5 4 4 4 5 5 4 4 4 4 4 4 4 5 5 5 7 5 5 6 6 6 6 6 5 5 6 5 4
3 1 1 1 1 0 0 3 2 2 3 6 3 7 4 1 1 2 7 6 7 8 9 10 8 6 10 10 8 6 9 10 10 9 11 12 12 10 7 6 5 5 4 6 8 7 7 7 7 7 7 7 7 7 7 7 6 5 5 5 5 5 5 4 4 4 4 4 4 5 5 5 5 5 4 4 4 4 5 4 4 5 5 4 4 5 5 5 4 5 5 5 5 5 5 4 4
3 1 0 3 2 1 1 1 2 4 4 6 6 4 3 3 1 1 5 8 4 5 1 4 5 4 4 7 11 9 9 11 11 13 12 12 11 10 9 8 8 9 7 7 6 6 6 7 7 8 7 7 8 6 5 6 6 5 5 5 6 6 5 5 5 4 5 4 5 5 6 5 5 5 5 5 5 4 5 4 4 5 5 4 3 6 4 3 4 5 5 5 4 5 5 4 5
3 2 0 0 3 1 1 1 1 1 7 5 3 1 2 2 4 1 3 9 4 1 1 2 3 5 7 11 11 15 16 14 16 15 14 15 14 13 9 9 7 5 5 7 7 7 7 9 8 9 8 7 7 6 7 6 6 6 6 6 6 6 6 6 5 5 4 5 5 5 5 5 6 5 5 5 5 4 5 4 4 5 5 5 3 5 5 3 4 4 4 4 5 4 5 4 5
2 1 1 1 1 1 2 1 3 1 1 1 3 5 0 3 1 1 6 11 7 4 2 3 5 6 5 8 12 9 10 9 9 8 5 5 4 2 3 4 5 5 8 8 7 8 8 8 8 10 9 9 6 6 7 6 6 6 6 5 6 7 6 6 6 5 5 4 4 5 5 6 4 5 5 5 4 5 4 4 3 4 4 5 5 4 5 4 4 4 4 4 3 4 4 4 4
2 1 3 1 1 3 2 1 4 3 1 1 3 1 2 2 2 3 9 7 3 1 3 4 5 6 7 10 12 11 11 14 10 9 12 5 3 4 7 7 7 9 11 9 8 8 7 8 9 10 10 9 7 7 6 7 7 7 7 7 6 7 7 6 6 6 6 6 5 4 4 5 6 6 6 4 6 5 4 3 3 4 4 4 4 5 3 4 5 4 4 4 5 4 4 2 3
3 4 3 4 1 1 4 2 2 2 1 1 2 1 0 1 2 6 1 3 3 2 3 2 7 8 8 6 8 8 10 12 14 7 2 4 5 8 9 6 9 11 9 11 10 8 6 7 9 9 9 9 7 8 7 7 8 8 7 6 6 6 6 7 7 6 6 6 6 6 5 4 5 5 6 6 4 5 4 4 4 3 5 4 4 5 3 3 4 4 4 5 5 5 5 3 4
4 9 4 5 5 2 3 2 3 1 1 2 2 1 1 2 1 7 2 6 2 4 2 4 5 5 6 6 7 7 7 7 2 5 12 9 12 12 12 12 13 10 11 13 10 7 7 9 8 10 10 9 9 9 8 8 7 9 8 7 7 6 6 6 7 7 7 6 7 7 7 6 5 5 6 5 5 5 5 5 4 5 4 4 4 5 5 4 4 3 4 4 4 4 4 4 3
2 1 3 2 4 0 5 1 2 2 0 1 0 1 2 1 6 6 4 4 1 2 3 3 4 4 4 4 4 6 9 4 4 6 11 13 11 9 13 13 10 10 9 8 8 8 11 9 9 8 10 10 10 10 9 8 7 7 8 7 7 8 7 6 7 8 8 7 8 9 8 7 6 6 6 7 6 6 5 6 5 5 5 5 4 5 5 4 4 5 4 4 5 5 5 4 3
1 7 3 2 2 2 2 2 2 1 0 2 1 3 7 8 11 5 1 4 1 1 3 4 5 4 4 4 5 6 4 4 8 12 11 10 8 9 12 10 8 9 8 6 5 11 9 7 7 7 7 10 11 10 9 8 8 7 7 6 6 7 8 8 6 6 7 7 8 9 10 8 7 6 6 6 6 6 6 6 6 6 5 5 5 6 6 5 5 5 5 5 4 4 5 4 4
4 1 4 1 2 3 2 0 2 4 1 2 1 3 7 5 1 3 4 1 2 3 5 5 5 5 5 4 5 7 8 8 11 10 9 8 7 7 10 6 8 9 5 6 11 10 8 9 7 7 9 9 9 11 11 9 7 7 8 8 7 6 4 7 8 7 7 8 7 7 9 11 10 8 7 7 7 6 6 6 7 7 6 6 6 6 6 5 5 6 6 6 4 4 4 3 3
2 4 2 2 4 3 5 1 0 4 1 4 4 1 8 8 9 4 3 2 3 6 6 5 5 5 5 5 6 7 10 7 9 9 10 10 8 9 10 11 8 8 11 10 7 6 9 9 8 10 9 11 10 10 10 9 8 6 4 5 8 11 9 6 4 6 8 8 8 8 9 8 11 11 8 7 7 7 7 7 8 7 9 7 6 6 6 7 7 6 6 7 7 4 5 3 3
4 2 1 2 0 4 4 0 1 1 1 4 2 5 4 3 4 4 3 2 1 3 5 5 6 6 6 6 6 6 7 8 8 11 12 11 10 10 11 11 10 11 9 8 10 7 9 10 10 11 12 13 12 10 9 9 9 9 9 6 4 5 8 10 8 4 4 7 8 9 9 9 9 10 12 11 9 8 7 6 5 6 7 9 9 9 8 7 7 6 6 5 6 7 6 5 4
3 2 1 2 2 1 2 3 1 2 1 3 3 1 6 4 7 6 4 1 3 2 5 6 5 5 6 5 6 7 8 9 11 11 14 12 12 12 12 11 11 9 9 9 9 11 12 9 10 12 11 11 11 11 9 8 8 8 9 10 9 8 7 6 8 8 6 4 5 7 9 10 10 9 9 11 9 9 9 10 9 8 7 5 4 6 8 8 9 10 9 8 7 8 7 8 7
6 2 1 1 1 2 3 1 1 0 2 3 1 2 10 12 10 10 5 1 1 6 7 7 7 6 6 5 5 7 8 10 14 11 9 8 9 10 10 10 10 9 9 10 8 9 8 8 8 10 11 11 10 10 9 7 6 5 5 7 8 10 9 8 7 8 9 8 5 6 8 8 8 10 10 9 9 8 7 5 6 9 10 9 7 4 3 5 6 6 9 9 5 5 8 7 7
8 10 6 4 5 4 2 4 2 0 1 2 3 6 7 9 10 12 3 2 1 6 5 7 8 8 7 7 7 6 8 12 12 7 5 5 7 8 9 8 8 8 7 6 8 7 9 8 8 8 10 10 8 7 6 7 6 7 7 4 6 8 7 6 5 6 5 8 9 8 6 8 9 10 10 9 7 7 7 8 8 5 5 8 10 10 8 8 12 11 8 10 8 4 3 6 6
5 4 4 4 5 1 2 2 1 0 1 3 4 5 5 11 11 11 13 1 4 6 9 9 8 8 8 7 8 9 9 14 2 4 5 5 5 5 5 5 7 7 7 8 9 10 11 12 10 13 11 9 9 9 8 9 9 8 7 9 10 6 6 6 7 6 5 6 7 9 9 7 8 9 9 9 10 9 7 5 7 7 6 7 9 12 13 10 7 6 4 4 9 7 3 4 6
6 5 5 1 1 2 0 0 2 2 1 1 1 2 8 11 11 12 9 5 10 10 11 10 11 9 8 8 10 10 12 5 5 7 5 4 5 5 4 5 5 6 10 9 12 14 11 9 10 11 6 9 10 11 10 9 10 10 10 10 8 7 6 7 7 6 7 5 6 8 9 10 9 8 8 8 9 9 9 9 10 11 10 9 8 5 7 8 8 6 6 5 4 9 7 6 6
3 5 3 3 3 2 3 1 2 3 1 5 1 4 9 11 11 11 8 10 7 5 5 7 6 8 8 8 10 10 7 11 5 7 5 5 5 5 4 5 6 10 7 9 9 6 7 9 11 9 8 10 10 10 9 11 9 7 8 5 7 4 3 5 6 4 5 6 6 7 7 7 9 11 12 11 10 9 9 9 8 6 10 11 9 8 7 8 10 12 11 9 6 2 3 5 9
6 5 4 6 2 3 2 3 1 3 2 2 1 5 11 7 7 11 10 7 7 6 7 9 8 10 12 11 8 7 9 9 9 6 6 4 4 5 4 5 6 4 5 5 7 10 8 8 10 10 10 9 9 9 10 7 4 3 1 1 2 4 4 3 3 3 4 6 8 7 7 7 7 7 7 10 11 10 10 11 9 8 7 7 10 10 9 9 8 9 10 10 9 7 6 9 11
1 3 3 3 2 2 2 2 0 1 1 2 2 4 8 3 5 5 2 3 4 5 5 6 9 9 9 8 9 8 10 7 9 8 8 6 5 5 5 4 2 5 7 7 7 8 7 9 8 7 6 6 5 5 7 4 5 4 3 4 3 2 2 2 3 5 6 6 6 7 9 7 7 7 8 8 8 10 12 12 12 12 13 13 12 12 12 14 14 13 13 10 12 12 11 8 10
0 4 6 5 5 6 0 1 2 3 2 4 2 3 3 3 7 8 8 8 9 3 5 9 6 4 4 7 10 6 7 6 8 10 7 3 5 6 5 4 3 5 6 4 4 5 5 6 6 6 5 5 6 5 5 6 6 7 6 6 5 4 6 5 9 11 8 8 10 7 5 7 7 7 7 9 10 11 11 9 7 6 5 5 7 9 10 9 10 12 13 14 15 13 12 9 9
3 4 4 3 6 6 6 4 3 0 1 2 2 2 5 6 4 4 4 7 11 9 4 8 7 7 5 7 7 7 7 7 5 6 5 5 5 4 6 5 4 4 5 3 4 5 5 5 5 5 5 4 4 4 5 6 5 6 9 10 10 10 10 8 6 5 7 7 5 6 6 6 8 9 8 8 7 6 8 10 13 14 13 12 11 10 10 11 11 13 12 12 14 12 8 10 12
5 1 5 7 7 7 5 5 2 1 1 1 4 3 1 7 8 5 5 6 10 9 9 8 7 7 7 6 6 6 7 5 5 5 5 4 4 4 5 4 4 5 4 2 3 3 4 4 4 4 4 4 4 5 6 7 8 7 7 8 8 8 9 9 6 6 4 4 6 7 6 6 7 8 8 7 5 6 7 7 7 8 9 9 8 9 10 11 11 11 12 14 11 9 12 13 13
2 2 5 4 6 4 5 5 5 0 1 5 4 1 0 4 8 4 3 3 5 7 7 7 8 7 6 6 5 4 4 5 4 4 3 4 4 4 2 3 4 4 3 2 2 2 2 2 3 3 4 4 4 5 7 6 7 8 8 7 7 7 6 5 3 3 5 4 5 5 6 6 6 6 7 7 6 6 6 5 5 6 7 10 13 14 15 15 15 13 11 10 12 11 13 14 11
1 6 7 7 7 6 4 4 4 1 1 4 3 1 2 8 7 5 3 1 7 8 6 5 5 5 5 5 5 5 4 2 1 3 3 3 3 4 3 2 2 3 3 1 1 1 2 3 4 4 4 4 4 5 6 6 6 5 6 6 8 8 5 4 2 3 4 4 6 5 6 6 6 6 5 5 6 5 5 5 5 6 6 4 4 5 6 7 7 8 11 12 13 14 12 12 13
9 4 7 6 8 4 3 6 2 3 1 5 3 4 1 4 5 5 3 4 4 2 2 2 3 4 4 2 2 3 3 3 3 2 1 2 3 3 3 4 3 3 3 3 3 3 2 3 4 4 3 3 4 5 6 7 5 5 7 7 9 8 6 5 4 5 4 4 6 6 6 6 5 6 5 5 6 5 6 6 6 6 6 5 5 6 9 10 10 11 12 14 15 16 13 13 12
4 3 4 6 4 6 4 5 5 1 5 4 1 1 0 6 5 4 6 5 4 2 3 1 4 5 7 6 7 7 5 4 3 2 4 3 3 4 4 6 5 4 4 4 3 3 2 2 3 3 1 3 3 4 4 4 5 6 6 6 7 8 6 6 8 9 8 8 7 7 5 4 5 5 4 5 6 7 8 8 7 7 7 6 7 5 6 6 7 8 8 10 12 15 14 12 11
5 6 7 6 2 4 2 3 2 4 5 1 3 1 1 8 10 7 8 8 5 6 5 3 2 6 7 7 8 6 5 5 6 5 5 5 5 5 6 5 4 5 4 3 3 2 1 2 2 3 4 2 3 3 4 4 5 6 7 7 7 6 6 7 8 8 6 7 6 6 5 7 5 5 6 8 7 8 8 8 7 7 7 7 6 6 5 5 5 7 8 9 9 10 11 12 13
4 8 7 6 2 1 2 2 1 5 5 4 1 1 3 4 9 11 15 9 4 5 6 7 5 5 8 8 7 8 7 5 4 4 4 4 5 5 4 4 3 3 3 2 2 1 0 1 1 3 4 3 3 4 4 5 6 6 5 6 6 6 7 7 7 8 7 6 6 7 7 7 7 9 8 9 9 9 8 9 9 9 8 6 6 6 6 5 5 6 7 10 12 12 11 14 13
7 1 7 8 8 5 3 3 4 5 4 3 3 1 6 3 2 1 4 5 5 5 5 5 4 7 8 6 7 6 5 4 4 4 5 5 5 5 5 4 4 3 2 1 1 0 0 1 1 2 3 3 3 4 4 5 6 6 5 5 6 5 7 6 7 6 5 6 6 7 7 6 7 7 8 8 5 7 8 8 8 9 8 8 8 7 6 6 6 5 6 8 9 10 11 11 12
0 3 5 5 6 6 1 4 3 1 0 1 1 5 4 4 1 6 5 5 6 4 4 3 4 4 4 5 3 2 1 2 3 5 6 5 4 3 4 4 4 3 3 3 2 1 1 1 1 3 4 3 3 4 5 5 5 4 4 5 7 6 5 5 5 5 6 6 7 7 7 7 7 6 5 5 5 6 7 7 7 8 8 8 8 8 8 8 8 8 8 8 10 8 10 12 12
4 4 4 4 2 10 7 1 1 1 4 6 2 7 6 8 8 5 2 3 5 3 1 0 2 3 3 1 3 3 2 3 4 6 5 5 4 4 3 3 4 5 6 6 5 4 3 4 4 4 4 4 4 4 4 4 4 4 5 5 5 5 6 7 8 7 7 6 6 6 6 7 5 4 5 5 6 5 6 6 7 7 7 8 8 8 8 8 7 8 9 9 11 8 9 12 12
9 2 7 2 2 5 5 3 2 4 3 7 2 8 5 2 7 5 2 0 3 2 1 1 1 1 3 1 1 2 3 3 2 3 3 4 5 5 5 5 5 5 5 6 6 4 3 2 3 4 4 4 4 4 4 4 4 5 5 5 5 6 7 7 7 7 6 6 6 6 5 6 6 6 5 4 5 6 6 6 6 7 7 7 8 8 8 8 8 8 9 10 10 8 9 8 10
3 3 4 5 2 1 2 4 1 1 2 5 3 2 4 6 7 4 1 6 7 5 1 1 4 3 2 3 1 2 2 5 6 6 5 5 5 5 5 5 3 4 3 4 4 4 3 3 2 3 6 5 5 4 4 3 4 5 4 5 5 6 6 6 5 5 5 6 8 7 7 8 5 4 5 5 6 6 6 6 6 7 6 7 7 7 7 7 7 8 8 8 7 7 9 10 9
2 3 4 0 3 2 4 6 3 5 4 2 7 3 6 7 6 9 8 8 9 5 1 2 2 4 3 3 1 4 6 6 6 6 5 5 6 6 5 6 8 8 8 8 7 7 9 7 6 6 5 4 4 4 4 4 4 4 5 4 5 5 5 5 6 6 7 8 8 6 6 5 8 6 6 6 6 6 6 7 7 7 7 7 7 7 6 7 7 8 8 7 7 7 8 9 8
3 3 2 0 2 2 5 1 3 4 5 5 2 6 5 7 7 5 9 6 4 6 6 4 5 5 4 2 2 3 4 5 4 4 4 4 5 6 7 6 5 5 4 5 6 7 6 6 7 7 8 10 7 5 4 4 4 4 4 5 6 4 5 5 5 5 7 7 6 5 5 6 4 7 5 6 7 8 8 8 8 8 8 8 8 8 7 7 8 9 8 7 6 7 9 9 7
8 11 11 12 9 4 4 7 3 2 3 4 4 10 4 9 2 6 4 6 6 7 8 8 6 5 4 2 1 1 2 3 3 4 3 2 3 5 6 7 5 6 8 9 8 7 8 8 7 7 7 5 7 8 5 5 4 4 4 5 5 4 4 4 5 5 7 7 6 5 5 5 6 6 5 7 7 7 7 7 8 8 8 8 8 8 7 7 8 9 9 8 8 8 8 9 7
Wind_Direction
355 353 335 109 61 81 13 2 159 315 64 148 9 112 196 89 187 73 242 3 145 245 210 54 103 125 151 204 179 178 217 130 196 130 212 231 230 168 158 134 131 130 135 145 151 145 144 145 150 152 147 125 113 105 101 96 93 91 91 90 90 88 85 93 94 92 94 97 99 94 87 88 93 94 89 88 87 87 87 88 89 90 90 89 87 85 86 89 93 92 87 87 85 84 84 86 87
3 319 46 11 58 49 209 117 97 351 37 58 246 107 247 288 88 208 194 191 205 193 194 123 100 104 75 75 104 131 62 305 174 143 233 143 100 112 178 141 140 139 143 142 142 137 140 143 145 144 128 120 112 108 104 100 97 95 96 95 92 88 85 87 94 97 100 101 95 92 89 88 89 91 92 88 85 85 87 89 91 92 90 91 90 88 89 93 94 91 91 90 88 87 90 90 90
355 349 22 31 32 69 88 30 279 9 101 201 271 208 317 131 191 231 216 220 196 140 149 111 99 57 28 26 45 42 213 46 143 239 92 127 139 189 158 142 138 136 141 134 134 136 135 140 145 139 128 121 116 113 110 108 104 105 103 100 97 94 88 83 90 101 101 102 94 90 89 91 94 93 94 93 91 86 83 88 95 94 92 91 92 90 86 92 94 95 94 92 88 86 87 88 84
104 22 109 61 286 34 59 29 86 129 135 202 313 270 181 176 226 199 236 241 180 112 289 293 71 269 89 46 223 101 51 135 181 162 140 172 212 137 147 144 140 138 130 128 133 133 130 141 141 136 131 125 120 118 118 112 111 112 109 107 103 99 95 89 92 101 103 99 96 95 100 99 98 98 95 94 89 86 87 95 97 96 94 91 88 86 93 95 98 93 90 91 91 91 85 80 82
74 14 73 93 104 286 109 129 141 99 182 198 183 264 248 202 196 187 266 242 243 226 352 199 80 343 184 120 172 121 228 210 130 210 99 167 145 145 144 141 141 143 141 136 136 138 139 140 141 139 136 130 126 125 125 122 119 119 118 114 112 108 106 102 100 101 105 107 100 97 98 101 102 99 94 93 92 88 92 99 102 98 94 92 90 90 90 94 96 95 92 90 87 84 85 85 82
65 63 5 91 266 150 64 71 50 169 220 151 126 221 215 204 159 198 212 272 238 234 215 74 161 181 34 330 173 98 201 95 170 219 157 226 152 145 148 139 142 145 143 130 140 144 152 147 147 149 142 137 134 135 132 130 128 126 124 121 117 115 112 115 115 110 99 105 107 105 107 107 101 99 102 100 98 98 98 106 106 100 97 96 96 95 95 97 96 95 94 92 89 86 89 90 88
10 50 356 27 37 46 186 140 209 192 295 162 189 242 194 194 191 131 188 119 248 56 120 213 105 93 71 300 15 246 189 181 111 230 161 165 140 147 146 145 145 150 148 139 141 153 157 156 154 153 147 143 142 141 140 135 134 130 126 123 122 120 117 117 117 112 110 109 93 95 95 97 97 96 102 102 97 98 104 110 109 105 102 98 96 98 99 99 101 100 96 89 90 94 88 87 85
67 115 290 113 226 46 43 203 192 164 349 186 218 254 231 171 148 138 184 131 229 156 9 205 333 102 253 63 159 265 331 211 225 330 179 133 145 149 152 150 151 155 156 141 148 158 165 162 160 153 154 147 146 146 142 139 137 132 128 126 124 122 121 118 119 118 110 112 101 102 100 103 101 104 104 106 105 104 108 111 109 106 99 95 98 100 100 101 101 98 95 96 95 93 94 92 89
5 88 277 68 58 24 59 81 267 234 286 294 289 221 256 156 137 137 169 260 35 49 98 185 277 81 229 58 162 278 298 295 294 212 149 139 152 152 158 155 153 154 161 152 154 159 158 169 155 156 158 150 152 150 145 143 140 138 134 130 127 125 123 121 118 120 118 111 108 105 106 103 104 107 108 107 105 106 111 115 112 105 100 101 98 102 106 105 103 102 99 100 100 98 96 94 90
43 57 288 129 130 12 4 296 90 179 248 253 245 232 156 170 138 144 161 104 175 113 213 355 131 93 138 142 334 359 39 335 18 96 149 146 150 153 159 159 153 155 160 164 156 159 156 164 153 159 161 154 158 153 149 148 148 143 141 135 132 129 127 125 125 121 119 117 112 105 103 107 112 110 102 106 107 106 109 113 111 109 105 105 107 104 106 108 106 105 105 103 103 101 100 92 92
318 16 136 78 26 78 170 257 292 317 308 311 291 230 206 119 120 135 21 155 14 140 219 230 35 125 91 257 209 263 309 314 132 170 163 149 148 161 157 156 153 158 162 163 158 158 162 158 160 161 164 161 158 155 152 153 151 148 143 140 136 134 132 131 129 124 121 118 112 107 107 110 117 115 112 108 108 107 110 112 113 111 107 100 97 104 109 107 108 107 109 108 105 105 102 103 101
350 22 15 100 152 154 231 164 291 284 298 333 128 337 187 136 114 131 141 122 221 108 151 156 221 146 69 337 300 291 320 203 188 164 156 139 153 157 150 144 154 160 158 159 156 164 163 155 160 167 165 162 159 156 154 154 153 149 146 143 140 138 137 135 133 132 125 122 123 118 120 121 116 112 111 106 106 110 113 115 116 114 108 107 107 114 116 113 110 110 110 108 106 108 108 107 100
108 94 84 85 175 178 204 102 281 318 342 280 177 22 132 112 195 193 169 93 57 132 303 205 151 93 150 184 252 317 291 234 197 158 152 149 154 141 138 142 156 157 156 155 162 167 161 157 157 163 167 164 158 154 155 151 151 147 148 144 144 141 140 138 137 135 129 113 113 119 122 117 112 116 116 114 113 113 118 117 120 120 112 112 117 123 122 119 110 110 114 111 113 113 112 102 98
116 180 125 168 47 116 132 206 355 142 269 246 277 145 177 143 246 174 132 122 210 163 238 185 136 139 112 360 311 314 243 222 172 140 141 143 133 134 147 148 155 162 162 165 172 169 160 158 156 159 158 161 154 153 153 153 150 148 148 143 142 142 141 139 137 137 131 110 81 79 92 89 117 123 123 125 124 118 114 123 126 123 123 115 121 126 124 119 114 116 118 117 117 113 102 97 92
149 140 82 112 52 81 231 115 196 146 241 202 196 138 190 272 110 150 166 141 241 210 329 163 182 125 235 146 278 214 204 184 144 125 122 118 127 138 147 152 153 142 154 175 174 172 171 156 161 157 156 155 153 154 153 155 152 149 144 144 140 140 139 134 133 128 113 105 88 83 89 91 90 95 95 96 104 115 120 132 128 122 118 117 121 126 126 123 121 122 121 120 111 101 97 92 89
139 90 82 107 149 137 225 127 20 95 262 184 8 198 150 308 189 134 243 152 166 349 106 201 35 199 153 148 218 243 209 134 131 118 118 126 134 141 147 140 171 151 174 178 180 183 174 168 165 160 149 148 157 157 153 149 156 148 145 145 144 141 138 134 126 115 107 100 94 90 90 89 89 95 98 100 108 112 112 109 107 114 120 120 130 132 130 127 128 125 121 109 103 99 94 89 88
91 78 68 44 171 166 227 146 139 202 240 240 292 169 167 226 195 255 48 60 122 197 359 271 177 355 172 191 204 264 235 119 119 118 116 137 150 152 146 141 147 157 166 190 185 183 182 181 172 161 135 135 140 133 151 147 158 149 144 148 148 143 139 133 116 110 107 103 101 98 90 88 93 94 92 97 100 108 116 117 104 122 122 123 132 131 132 131 130 124 113 104 98 92 83 77 75
57 87 113 94 197 138 205 174 189 203 128 222 191 207 130 201 199 207 89 32 68 359 233 308 297 245 202 256 250 245 169 132 142 141 153 156 172 169 176 171 167 188 182 183 190 186 184 187 180 119 167 167 164 158 158 153 153 153 147 150 149 142 134 125 120 121 116 116 112 106 102 100 98 99 100 103 107 116 117 124 114 115 122 119 126 134 131 132 128 122 109 103 99 92 79 76 68
95 117 91 202 180 233 155 199 194 122 253 165 189 189 177 213 147 228 118 285 44 118 276 9 304 297 322 332 273 139 149 141 154 161 163 171 181 181 175 169 181 174 194 187 188 188 191 187 184 163 151 155 158 167 166 158 159 156 152 152 145 140 138 135 134 128 127 127 121 117 115 113 110 105 110 118 118 122 126 129 130 111 119 118 121 129 132 130 127 111 101 99 93 85 76 79 75
213 121 174 251 205 227 213 167 198 200 135 148 161 197 154 247 140 82 203 178 60 192 204 315 270 246 244 304 131 146 152 154 164 170 177 181 187 188 172 184 188 195 194 196 191 188 191 195 186 183 173 152 147 149 159 160 166 161 158 156 146 140 141 143 140 137 136 133 127 125 125 124 119 115 110 111 110 106 118 121 119 113 117 112 103 103 113 113 98 93 93 88 80 76 82 73 77
228 86 161 223 190 124 223 184 219 201 161 140 144 89 141 244 205 156 167 113 263 267 233 183 203 218 197 198 161 152 157 160 175 182 186 191 196 197 203 199 200 197 198 184 192 195 196 191 189 188 185 171 176 158 171 156 170 165 161 160 151 149 145 145 143 141 143 137 131 128 129 127 124 122 120 112 115 116 108 113 115 91 82 85 94 85 83 80 84 88 82 74 76 84 83 71 76
98 203 199 171 138 62 315 190 189 147 194 119 133 134 206 97 64 122 153 167 223 212 231 215 213 177 156 168 179 162 167 172 183 188 195 195 195 198 197 206 197 199 181 188 197 196 198 194 190 189 186 185 182 180 183 176 174 176 169 167 155 155 154 154 152 150 148 145 141 135 127 122 127 126 131 131 125 128 124 129 120 99 94 94 99 97 89 98 92 97 97 94 85 81 82 78 66
189 320 311 197 196 129 338 318 293 134 133 141 143 202 102 144 182 204 181 200 233 228 247 226 210 189 173 149 149 168 175 183 189 197 196 199 204 205 201 197 195 197 194 204 191 198 194 196 192 188 194 186 187 183 182 178 188 184 174 170 164 164 162 158 166 163 161 154 150 150 142 143 140 142 142 146 148 141 142 143 131 108 114 110 103 114 101 96 108 106 103 102 102 99 90 85 81
105 177 69 182 189 33 301 275 291 204 136 183 187 83 136 146 187 104 206 244 218 126 256 256 180 134 147 147 177 173 185 186 198 200 198 201 199 203 197 197 203 200 207 207 199 195 192 196 193 190 195 191 189 184 185 189 190 185 182 168 175 168 164 172 169 173 160 163 161 162 151 151 153 154 157 156 160 146 153 153 128 114 114 115 107 114 116 103 103 103 109 104 105 99 108 99 96
109 171 198 143 102 305 330 53 69 114 90 330 124 131 289 183 171 81 248 249 256 289 45 87 125 135 155 166 178 189 192 201 208 210 221 232 219 200 209 208 206 202 214 210 206 201 197 193 192 194 195 196 191 187 189 189 195 191 185 183 187 164 178 177 168 160 169 166 166 162 156 152 155 158 163 167 149 159 150 149 140 127 122 126 120 114 125 128 114 117 114 111 92 94 98 102 99
160 159 115 46 61 327 334 91 45 35 120 61 86 356 320 244 220 250 241 262 318 226 74 112 119 146 175 188 186 184 193 201 201 203 211 196 196 196 220 206 203 212 215 213 209 210 199 187 194 199 194 195 194 192 196 186 193 201 192 191 192 169 184 177 163 171 173 169 172 171 174 166 170 169 166 158 162 164 157 145 139 132 132 133 129 133 131 130 133 121 114 111 109 98 87 80 98
137 101 97 97 318 349 2 115 1 332 108 319 147 267 294 336 94 282 342 292 317 86 102 135 146 182 196 193 196 203 195 201 201 195 163 200 211 212 220 209 209 216 210 218 214 210 198 193 199 199 197 191 194 200 199 194 187 201 202 192 192 186 180 173 176 175 174 179 175 171 174 178 169 166 163 163 166 157 160 156 157 133 132 141 132 128 116 128 128 128 134 132 127 118 106 83 91
84 136 107 33 350 58 4 67 8 1 50 34 136 173 327 308 101 229 257 321 286 148 130 161 179 197 201 207 204 209 218 222 174 164 205 195 210 210 212 210 214 209 209 217 213 202 204 208 203 200 198 192 195 203 201 202 194 194 197 199 200 189 182 182 182 182 183 181 175 176 178 180 176 174 169 165 167 163 167 169 157 156 156 146 136 137 130 124 128 114 101 103 106 108 103 85 79
156 183 122 316 8 57 5 91 331 359 86 30 347 66 300 194 228 249 243 338 81 136 161 201 219 229 236 232 227 220 222 208 200 215 219 215 214 209 218 218 211 210 222 218 208 204 211 207 209 206 199 194 198 203 204 205 200 192 192 196 195 193 192 191 189 191 188 185 181 177 183 182 181 179 178 174 171 170 169 168 170 172 160 155 142 142 131 125 115 109 94 100 106 109 106 98 88
119 42 122 38 11 342 316 309 337 92 253 24 309 266 268 262 250 270 294 355 18 126 234 229 233 236 243 239 229 240 241 213 216 222 223 223 221 216 224 221 212 217 216 206 201 214 209 209 207 210 210 202 198 203 205 204 201 196 193 196 191 194 196 196 197 189 190 187 185 185 178 182 184 184 176 175 171 169 172 179 178 175 166 158 145 146 144 145 136 130 133 119 126 129 131 133 128
137 250 57 128 106 245 308 10 313 142 354 10 112 196 285 280 276 280 298 318 170 234 246 247 241 244 237 235 238 239 243 222 227 233 237 235 232 231 234 231 217 219 214 206 210 214 204 211 200 213 210 218 202 204 203 203 193 194 194 195 195 188 207 210 194 186 187 189 185 192 192 179 180 185 182 179 178 175 175 182 184 185 163 162 159 162 154 152 150 153 153 134 127 117 125 137 139
27 81 278 328 159 275 296 27 88 168 340 48 89 316 245 260 272 279 336 1 176 235 256 266 263 254 246 235 236 242 243 237 246 246 240 238 230 233 230 232 215 216 215 216 215 198 211 210 203 210 207 217 217 211 207 206 201 188 182 209 205 194 196 213 225 199 182 184 187 187 193 199 183 176 182 183 181 182 183 187 195 179 172 167 163 158 159 165 165 158 173 156 144 152 144 147 142
359 99 244 215 84 253 348 145 330 333 120 8 152 219 321 323 252 274 315 44 72 239 277 267 264 256 248 243 238 244 261 254 243 239 236 229 230 228 230 232 220 218 216 212 210 203 213 207 205 208 210 211 216 216 214 210 208 210 208 204 211 218 210 203 200 213 208 187 183 187 189 190 202 191 178 182 184 185 188 197 194 187 180 176 169 171 172 171 166 165 170 187 166 158 170 161 157
246 32 148 211 168 244 259 307 359 13 99 206 9 204 236 248 282 289 306 69 6 293 277 281 265 256 249 237 234 241 242 252 246 233 233 221 227 222 227 229 228 221 218 214 209 206 212 205 205 209 212 211 211 212 208 209 207 205 206 209 208 211 217 218 205 191 208 199 178 194 187 188 192 201 197 181 193 195 192 192 184 177 178 189 204 193 192 175 172 168 172 186 180 160 173 170 169
194 158 102 275 285 217 228 126 232 22 23 171 351 259 275 275 282 282 269 227 258 266 264 277 284 275 270 253 245 240 244 247 250 238 229 221 226 229 225 226 226 222 221 215 210 212 209 208 207 211 211 210 211 209 205 204 199 197 197 199 204 211 209 205 207 208 198 195 200 181 191 194 194 195 197 193 189 190 190 187 184 179 172 175 170 187 202 180 180 198 183 174 180 187 172 173 161
182 179 177 145 155 216 214 240 279 182 156 230 219 228 265 283 291 291 290 129 192 267 288 282 271 267 265 256 253 248 239 250 250 258 247 223 217 219 223 223 225 222 221 211 211 208 210 210 208 213 212 207 205 205 196 199 200 202 204 208 217 211 202 196 202 209 204 204 196 186 190 199 195 195 192 192 197 193 192 181 177 185 187 177 175 178 191 193 193 188 191 169 162 144 148 151 142
111 79 102 176 168 273 274 272 277 318 104 244 236 269 273 276 271 276 283 307 301 282 275 265 259 260 259 258 249 248 246 243 285 240 251 242 239 231 228 216 222 218 216 206 206 210 208 208 197 213 207 195 193 197 196 194 200 206 214 211 217 207 207 202 202 207 205 207 201 193 187 196 195 195 197 187 190 189 193 192 173 181 196 209 202 198 192 191 193 187 160 172 163 149 156 159 152
135 139 145 202 205 147 222 111 345 324 138 287 39 318 272 261 273 269 277 325 278 259 261 263 262 254 256 255 261 249 247 297 301 292 280 279 265 263 249 228 210 210 225 206 208 211 208 203 205 216 190 196 200 199 198 199 203 204 200 210 210 205 200 202 211 203 202 198 201 207 202 191 184 187 194 193 193 196 198 195 191 185 181 199 218 236 183 168 166 174 163 161 190 169 166 171 168
52 143 161 104 254 240 294 294 344 331 90 266 19 340 280 274 267 270 256 256 254 245 223 246 254 267 257 253 255 266 280 271 278 262 277 269 277 270 240 226 221 219 221 205 220 212 204 203 212 209 200 196 203 199 193 205 205 206 200 204 198 206 217 210 214 200 191 196 202 208 211 218 213 197 184 187 193 197 202 206 214 209 193 183 181 193 188 183 185 183 179 181 170 175 127 167 185
109 95 116 200 240 130 254 283 349 359 76 324 331 330 285 284 283 268 268 244 265 263 252 254 235 248 252 249 251 265 270 274 280 280 278 266 259 267 277 248 234 234 239 218 209 210 207 209 210 206 205 201 200 201 202 204 181 161 134 121 168 181 194 199 199 198 195 205 213 205 210 206 204 210 203 189 185 191 200 203 200 187 193 190 185 187 193 198 193 195 189 188 172 168 185 193 193
354 123 129 124 158 233 149 199 17 323 59 65 2 305 300 327 333 331 323 333 310 288 325 277 257 243 265 291 287 249 258 267 279 294 285 286 286 266 247 251 233 217 221 220 209 209 208 214 215 210 208 204 203 194 196 160 122 115 101 67 63 69 37 143 191 223 211 206 213 212 217 199 199 208 204 201 204 201 200 202 199 197 192 190 191 194 198 202 196 193 189 184 186 190 194 194 199
325 227 171 192 175 142 283 33 112 23 337 6 57 347 317 303 288 246 288 343 324 293 331 285 284 297 282 265 260 273 259 240 240 252 266 297 283 297 299 295 259 241 237 234 218 217 213 216 205 204 198 190 196 190 173 157 170 164 158 162 179 188 206 184 205 210 206 207 213 210 206 203 210 212 210 215 208 201 202 206 210 206 206 206 210 208 205 195 195 195 194 195 200 205 198 177 197
129 248 172 156 144 126 123 115 83 47 146 354 6 158 266 325 315 279 319 327 301 309 294 280 307 298 286 269 277 273 261 267 263 277 288 287 286 299 295 295 267 255 248 230 212 212 212 211 199 193 194 185 172 165 161 165 172 182 189 198 203 205 211 219 217 217 210 216 211 206 210 206 209 213 220 212 215 226 230 210 197 193 195 197 193 197 200 201 202 202 198 203 207 201 176 192 198
210 254 120 114 114 132 158 113 115 165 246 295 45 98 220 305 285 274 315 325 299 309 302 317 311 311 307 297 281 273 270 257 266 281 290 278 275 254 277 295 302 274 270 277 228 214 202 200 179 185 175 164 161 154 167 179 186 191 198 210 212 215 212 223 196 212 211 197 206 214 209 213 212 218 220 223 224 217 212 225 233 223 201 188 179 196 205 206 208 211 207 208 203 193 198 203 205
222 210 132 128 135 140 118 92 105 118 46 281 333 341 292 256 267 314 3 318 308 291 295 305 310 314 311 314 320 312 275 256 243 263 283 307 304 303 279 300 295 308 312 291 247 223 203 165 148 137 151 149 162 164 172 191 197 195 202 206 224 229 227 235 185 180 190 194 208 215 215 214 214 219 220 221 220 220 219 227 224 223 220 209 196 200 204 204 204 199 196 193 200 204 207 215 212
241 128 95 94 80 73 95 102 82 352 69 276 227 9 205 281 275 328 336 284 268 266 280 284 289 297 302 321 337 343 344 336 250 238 268 287 290 313 326 288 358 350 334 342 18 85 102 114 124 135 156 163 166 174 180 191 199 193 202 212 223 233 227 247 170 196 199 188 214 213 216 219 218 220 223 224 223 218 224 222 228 232 233 238 220 211 202 205 200 194 194 197 204 212 214 215 215
130 120 79 39 40 30 28 61 91 65 4 252 254 304 154 297 273 229 130 213 213 240 298 288 308 326 325 305 283 303 321 328 338 324 285 279 285 318 345 41 353 3 9 37 30 47 73 105 128 144 174 165 168 182 181 195 196 196 208 212 220 229 226 219 228 242 219 214 220 219 213 218 215 219 218 228 226 224 228 222 222 225 223 222 228 229 207 199 201 201 201 202 204 207 210 209 215
122 99 127 77 354 10 29 345 34 116 269 261 273 255 35 177 289 309 235 287 245 188 147 5 338 327 324 325 334 336 339 342 333 10 9 1 13 6 19 27 9 359 26 21 24 27 58 88 123 142 149 181 185 188 186 203 195 211 219 217 221 225 218 213 221 231 216 220 218 221 215 219 227 226 219 218 219 219 223 229 227 229 231 227 225 209 231 221 207 206 209 208 212 211 210 205 207
83 89 79 110 235 34 292 10 280 213 197 244 345 172 352 242 234 267 299 273 259 227 217 229 285 309 315 319 322 322 321 338 358 360 5 17 24 3 8 4 14 25 10 3 1 12 40 90 130 157 215 213 202 186 193 206 206 217 215 220 229 225 222 219 225 231 221 221 217 222 205 216 211 220 221 220 223 215 216 221 219 222 226 223 226 221 216 214 211 202 202 206 216 219 216 211 210
105 134 138 106 117 72 232 279 259 309 295 272 303 293 267 251 280 244 243 251 212 231 230 238 243 272 293 300 318 327 329 337 341 341 358 15 15 7 2 7 12 7 5 360 344 7 4 131 154 175 229 207 202 191 201 206 221 225 220 223 227 219 228 225 230 229 230 221 214 222 216 214 213 215 213 218 217 219 222 226 228 232 231 231 226 229 228 217 211 211 211 214 212 215 211 212 218
203 58 146 176 142 157 205 197 204 216 204 286 278 76 232 120 243 234 220 246 276 276 270 263 248 248 264 286 297 302 310 324 329 355 17 15 9 14 12 6 7 359 355 347 328 323 15 273 206 218 257 264 203 215 207 218 229 227 225 228 232 223 231 231 235 232 232 225 223 224 225 220 220 224 215 223 214 214 222 227 231 236 238 242 242 242 236 231 225 224 222 223 223 218 216 214 221
336 161 84 90 217 140 122 207 140 208 314 8 255 216 187 173 297 280 266 304 296 302 289 323 301 298 318 333 328 303 290 334 355 32 36 30 17 13 27 22 7 358 345 346 353 341 1 276 259 249 249 251 214 216 220 221 234 230 227 228 231 231 238 241 250 238 232 222 229 219 230 224 226 227 228 217 220 208 216 221 224 228 230 234 235 237 239 237 232 235 239 234 234 215 219 215 221
221 105 199 207 122 98 96 62 14 89 43 257 165 314 289 300 314 284 348 323 290 342 324 346 291 323 342 346 321 327 332 19 36 47 47 43 44 52 60 48 36 24 21 16 360 349 336 333 335 313 298 293 275 244 239 238 248 242 244 234 237 234 232 231 233 234 232 229 227 230 230 233 232 228 232 214 222 217 219 218 222 224 225 228 232 232 233 233 230 232 236 238 243 226 220 221 217
96 181 230 189 138 124 125 203 352 63 186 265 93 226 287 30 273 328 339 149 299 286 234 294 288 9 79 21 329 322 354 7 39 60 62 59 52 40 26 25 31 32 13 12 2 353 337 321 302 304 302 295 280 262 258 245 245 247 251 245 240 233 235 239 237 240 235 232 230 231 237 243 229 227 222 225 217 222 221 220 223 225 222 223 226 227 226 227 227 232 235 238 240 229 229 228 224
140 198 192 111 214 203 324 89 240 162 267 269 298 280 256 195 242 332 276 189 232 248 253 108 104 75 97 89 31 16 22 50 52 51 52 39 36 27 26 30 30 38 24 14 349 344 351 351 317 279 298 305 302 291 274 265 244 250 244 246 240 241 239 245 245 242 240 236 239 229 225 228 234 225 224 223 223 224 222 225 222 230 226 226 225 227 221 227 225 235 236 242 237 228 230 231 227
39 87 82 99 101 159 128 198 175 127 240 58 289 41 245 202 221 201 233 214 212 189 96 195 152 151 155 152 125 53 44 37 30 24 16 9 9 13 23 28 18 4 358 352 354 358 2 355 349 340 323 316 312 294 275 271 256 249 263 263 259 245 245 241 240 238 240 239 242 241 242 240 232 218 215 213 219 222 219 223 222 226 229 228 228 226 219 225 227 234 234 235 231 228 235 235 234
68 86 176 122 35 223 108 27 126 181 171 186 226 314 281 259 215 191 225 220 199 172 170 193 177 172 173 180 128 59 25 14 358 346 339 337 346 354 359 7 12 15 16 9 16 3 344 349 352 352 347 333 333 316 293 275 268 260 256 261 260 256 257 248 253 243 247 251 252 243 243 244 254 240 224 225 221 219 218 218 221 224 223 224 224 225 217 218 224 232 231 231 230 226 232 239 233
165 164 187 174 129 140 161 251 36 101 128 225 137 254 277 271 186 207 224 242 181 222 164 168 179 177 185 194 253 35 17 324 291 296 294 294 333 5 12 9 13 26 16 13 359 1 1 358 348 338 342 333 326 325 330 315 299 284 278 280 276 270 266 264 256 258 254 258 257 248 247 251 240 245 214 235 235 232 224 222 225 229 224 223 223 222 215 213 224 229 231 223 227 225 233 239 229